Location: Grange Verzio
(44.5000°N, 6.9833°E)
Time: 18:48:27
(UTC+00:00)

Cosmos 2219 Rocket - Pass Details

Date: 28 September 2023
Orbit: 826 x 848 km, 71.0° (Epoch: 08 December)

Event Time Altitude Azimuth Distance (km) Brightness Sun altitude
Rises 19:21:53 0° 238° (WSW) 3,355 5.9 -22.4°
Reaches altitude 10° 19:24:40 10° 250° (WSW) 2,427 5.2 -22.8°
Maximum altitude 19:29:22 28° 308° (NW) 1,527 4.2 -23.6°
Drops below altitude 10° 19:34:08 10° 7° (N) 2,446 4.8 -24.4°
Sets 19:36:57 0° 19° (NNE) 3,387 5.4 -24.9°
